Flag for India Weather past 2 weeks in Meerut, Uttar Pradesh, India

55 °F


Feels Like: 55 °F
Forecast: 53 / 79 °F
Wind: No wind

Location: New Delhi Palam Airport

Current Time: Nov 25, 2015 at 6:29:31 AM

Latest Report: Nov 25, 2015 at 5:30 AM

Visibility: 1 mi

Pressure: 29.98 "Hg

Humidity: 82%

Dew point: 50 °F

Location of MeerutLocation

Historic Weather in Meerut — Graph


Meerut temperature yesterday

Maximum temperature yesterday: 81 °F (at 2:30 PM)
Minimum temperature yesterday: 54 °F (at 7:30 AM)
Average temperature yesterday: 67 °F

Past Weeks' High & Low Weather Summary

High90 °F (Nov 15, 4:00 PM)88% (Nov 10, 7:00 AM)30.12 "Hg (Nov 10, 7:00 AM)
Low54 °F (Nov 18, 6:00 AM)21% (Nov 22, 3:30 PM)29.86 "Hg (Nov 14, 2:30 PM)
Average70 °F54%29.98 "Hg
* Reported Nov 10 4:30 AM — Nov 25 5:00 AM, Meerut, Weather by CustomWeather, © 2015

Note: Actual official high and low records may vary slightly from our data, if they occured in-between our weather recording intervals... More about our weather records


Meerut weather history for previous 24 hours

Time TempWeatherWind HumidityBarometerVisibility
5:00 AM
Wed, Nov 25
57 °FClear.5 mph72%29.98 "Hg1 mi
4:30 AM57 °FClear.6 mph72%29.98 "Hg1 mi
4:00 AM57 °FClear.5 mph72%29.98 "Hg1 mi
3:30 AM57 °FClear.No wind72%30.01 "Hg1 mi
3:00 AM59 °FClear.No wind68%30.01 "Hg1 mi
2:00 AM61 °FClear.No wind63%30.01 "Hg1 mi
1:30 AM61 °FClear.3 mph63%30.01 "Hg1 mi
1:00 AM61 °FClear.3 mph63%30.01 "Hg1 mi
12:30 AM61 °FClear.3 mph63%30.01 "Hg1 mi
12:00 AM63 °FClear.3 mph59%30.01 "Hg1 mi
11:30 PM
Tue, Nov 24
63 °FClear.No wind59%30.04 "Hg1 mi
11:00 PM63 °FClear.5 mph59%30.04 "Hg1 mi
10:30 PM63 °FClear.5 mph64%30.01 "Hg1 mi
10:00 PM63 °FClear.5 mph64%30.01 "Hg1 mi
9:30 PM64 °FHaze.3 mph56%30.01 "Hg1 mi
9:00 PM66 °FHaze.5 mph52%30.01 "Hg1 mi
8:30 PM68 °FHaze.5 mph49%30.01 "Hg1 mi
8:00 PM68 °FHaze.3 mph49%30.01 "Hg1 mi
7:30 PM70 °FHaze.3 mph46%29.98 "Hg1 mi
7:00 PM70 °FHaze.3 mph46%29.98 "Hg1 mi
6:30 PM73 °FHaze.3 mph38%29.98 "Hg1 mi
6:00 PM73 °FHaze.3 mph38%29.98 "Hg1 mi
5:30 PM75 °FHaze.3 mph36%29.95 "Hg1 mi
5:00 PM77 °FHaze.6 mph34%29.95 "Hg1 mi
4:30 PM81 °FHaze.7 mph30%29.95 "Hg1 mi
4:00 PM81 °FHaze.8 mph30%29.98 "Hg1 mi
3:30 PM81 °FHaze.8 mph30%29.98 "Hg1 mi
3:00 PM81 °FHaze.8 mph30%29.98 "Hg1 mi
2:30 PM81 °FHaze.8 mph30%29.98 "Hg1 mi
2:00 PM79 °FRain. Cloudy.7 mph34%30.01 "Hg1 mi
1:30 PM79 °FRain. Cloudy.7 mph32%30.01 "Hg1 mi
1:00 PM79 °FRain. Cloudy.7 mph32%30.04 "Hg1 mi
12:30 PM77 °FRain. Cloudy.5 mph34%30.04 "Hg1 mi
12:00 PM77 °FRain. Cloudy.5 mph39%30.04 "Hg1 mi
11:30 AM75 °FRain. Cloudy.3 mph41%30.07 "Hg1 mi
11:00 AM73 °FRain. Cloudy.3 mph47%30.07 "Hg1 mi
10:00 AM64 °FRain. Cloudy.3 mph64%30.09 "Hg1 mi
9:30 AM63 °FRain. Cloudy.3 mph68%30.07 "Hg1 mi
9:00 AM61 °FRain. Cloudy.3 mph72%30.07 "Hg1 mi
8:30 AM59 °FRain. Cloudy.3 mph82%30.07 "Hg1 mi
8:00 AM55 °FRain. Cloudy.No wind82%30.07 "Hg1 mi
7:30 AM54 °FRain. Cloudy.No wind82%30.04 "Hg1 mi
7:00 AM55 °FRain. Overcast.No wind82%30.04 "Hg1 mi
6:30 AM55 °FRain. Overcast.No wind82%30.01 "Hg1 mi
6:00 AM55 °FRain. Overcast.No wind82%30.01 "Hg1 mi
Weather by CustomWeather, © 2015

See weather overviewHow to use our weather pages